sat.trackr.live / text

‹ back to catalog

STARLINK-30348

NORAD 57712 · 2023-129Q

PAYLOAD ACTIVE UNKNOWN

§ Identity

Operator
Country
US
Launch date
2023-08-27
Launch site
AFETR
Launch vehicle
Mass (kg)
RCS (m²)

Purposes: comms

External: N2YO · Heavens-Above · Gunter

§ Orbital elements

Epoch: 2026-05-25T03:22:28.809408Z

Period
94.27 min
Inclination
43.0023°
Eccentricity
0.0001546
Mean motion
15.27600365 rev/d
Perigee alt
481.9 km
Apogee alt
484.0 km
Semi-major
6,861.1 km
B*
1.1731e-3
RAAN
46.2460°
Arg perigee
278.3976°
Mean anomaly
81.6700°
Rev number
15,237

§ Raw data

STARLINK-303481 57712U 23129Q   26145.14061122  .00032179  00000+0  11731-2 0  99902 57712  43.0023  46.2460 0001546 278.3976  81.6700 15.27600365152371

JSON: /api/v1/satellites/57712 · /tle

For live sub-satellite position, see the globe view (requires WebGL).

§ Visibility from observer

Set your observer location to see the next 7 days of passes ≥ 10°. The values pass through the URL so the page stays shareable.

No JS? Fill the form by hand. The geolocation button needs JavaScript.